CAPE
423 180 204 755 1092 1241 1308 1372 1370 1492 1459 1765 1804 1864 1872 1910 1973 1882 1861 1824 1760 1625 1345 1168 1217 1464 1929 1920 1870 1908 1880 1757 1671
1237 700 385 889 1179 1260 1342 1543 1484 1384 1535 1761 1739 1786 1980 2025 2032 1977 1679 1769 1773 1894 1667 1337 1300 1644 1854 1852 1873 2113 2017 1787 1674
1845 1835 1695 1563 1523 1544 1542 1675 1732 1685 1733 1703 1695 1615 1804 1913 2013 2108 2010 1975 1973 1898 1677 1641 1738 1627 1928 1860 1951 2153 2306 1831 1790
1900 2066 2089 2015 1981 1929 1981 1939 1889 1899 1862 1773 1719 1603 1453 1581 1856 1981 2119 1989 2064 2117 2079 2052 2033 2181 2104 2059 2090 2052 2143 2198 1870
1687 1777 1811 2128 2270 2309 2308 2268 2188 2094 2019 1955 1858 1528 1384 1520 1670 1812 1740 1805 1818 1873 1947 2036 2192 2308 2321 2291 2208 2257 2355 2325 2023
1600 1873 1896 2019 2153 2343 2498 2515 2571 2452 2331 2146 1900 1760 1846 1030 422 283 1554 1759 1986 1946 2023 2243 2193 2380 2698 2578 2560 2486 2523 2602 2596
999 1549 1763 1886 1878 1811 1794 1959 2320 2372 2325 2262 2173 2146 1408 850 813 749 953 988 1622 2186 2347 2370 2759 2883 2864 2972 3051 2792 2594 2672 2815
823 1277 1457 1433 1896 1644 1240 1320 1643 2116 2418 2759 2850 2687 2110 1287 914 1153 2240 2453 2550 2458 2180 2251 3101 3202 3267 3289 3256 3040 2851 2796 2836
576 1242 1380 1483 1164 1372 1587 1451 1378 1429 1641 2032 2442 2403 2441 2617 2665 2946 3002 3334 3467 3621 3477 3406 3301 3510 3669 3577 3297 2820 2545 2437 2718
1043 1113 1275 1440 1737 1237 1212 1370 1082 1101 1633 2922 3460 3972 3210 2651 2441 2852 2491 1766 901 1113 2246 3841 4092 4091 4145 3864 3860 3334 2618 2206 2444
718 878 1149 1407 1228 1578 1880 1345 1230 1326 1412 2723 3240 4060 3690 3077 2014 682 178 36 0 0 0 981 3146 3813 3517 3778 4118 3267 2685 2384 2633
414 604 745 1071 1131 1236 1283 1431 1439 1507 1401 1979 2487 2759 3374 2625 1492 1118 517 564 327 239 1039 1832 1780 2168 2429 2977 3711 3642 2651 2446 2943
68 114 131 222 439 868 1183 1210 1165 1350 1372 1580 1692 1712 1941 1975 1847 1791 1278 1084 809 1035 1213 856 709 656 837 1145 1719 2720 2962 2454 3161
0 0 0 2 25 82 67 132 470 1315 1587 1575 1554 1666 1438 1462 1301 1142 932 799 867 755 590 371 226 372 672 1058 1643 2008 2683 2563 2966
0 0 0 0 0 0 0 0 1 75 320 755 1171 1369 1101 1206 1267 1110 689 959 1100 1056 835 529 412 347 387 159 1180 1000 1388 1715 2064
0 0 0 0 0 0 0 0 0 0 9 47 150 399 1018 1336 1217 1070 1022 1074 1019 707 754 491 193 75 50 37 505 554 442 560 910
0 0 0 0 0 0 0 0 0 0 0 22 37 32 168 478 1185 1414 1422 939 611 497 237 186 69 35 22 0 329 477 417 544 681
0 0 0 0 0 0 0 0 0 0 0 23 24 0 10 40 78 473 992 1100 757 418 415 217 27 19 50 12 0 259 356 312 903
0 0 0 0 0 0 0 0 0 0 0 18 53 0 0 0 0 0 9 412 1033 755 285 212 145 0 2 47 40 1 173 183 162
0 0 0 0 0 0 0 0 0 0 47 88 96 72 0 0 0 0 0 0 72 724 803 224 0 0 0 0 0 0 0 1 76
CIN
-142 -150 -120 -99 -109 -127 -131 -138 -124 -110 -139 -167 -147 -141 -132 -119 -95 -67 -38 -28 -17 -3 -1 -1 -2 -2 -1 -6 -6 -1 -1 -1 -1
-120 -118 -133 -109 -126 -145 -138 -137 -166 -210 -145 -169 -155 -125 -123 -124 -113 -98 -44 -39 -15 -17 -19 -5 -16 -3 -1 -1 -4 -5 -2 -3 -4
-112 -143 -147 -135 -129 -153 -173 -161 -180 -194 -179 -171 -163 -133 -111 -99 -101 -108 -91 -63 -43 -23 -19 -28 -24 -23 -11 -5 -2 -6 -4 -7 -26
-140 -151 -160 -182 -169 -175 -193 -166 -147 -163 -199 -192 -184 -180 -167 -104 -74 -76 -89 -77 -61 -51 -30 -35 -43 -37 -22 -8 -3 -9 -12 -18 -12
-148 -205 -190 -196 -211 -212 -226 -187 -175 -186 -186 -179 -191 -192 -114 -102 -66 -75 -57 -77 -56 -48 -42 -31 -61 -42 -22 -20 -12 -1 -1 -10 -15
-95 -152 -182 -158 -168 -195 -192 -165 -173 -172 -187 -168 -127 -134 -115 -164 -210 -94 -69 -57 -22 -39 -48 -45 -43 -37 -22 -15 -17 -6 -1 -3 -13
-77 -131 -175 -165 -153 -188 -224 -190 -183 -164 -136 -123 -94 -79 -146 -157 -132 -107 -96 -92 -63 -37 -22 -24 -18 -34 -22 -12 -7 -8 -4 -0 -2
-69 -88 -143 -198 -178 -229 -271 -259 -237 -175 -96 -78 -66 -67 -91 -120 -160 -94 -17 -22 -52 -48 -46 -36 -12 -9 -6 -10 -10 -10 -14 -4 -1
-90 -95 -122 -158 -220 -218 -214 -229 -211 -201 -156 -128 -104 -129 -101 -59 -45 -29 -18 -17 -19 -8 -14 -17 -26 -9 -3 -9 -11 -15 -53 -44 -5
-116 -125 -145 -121 -114 -155 -180 -175 -205 -162 -106 -53 -33 -11 -72 -125 -103 -62 -92 -166 -229 -217 -60 -0 -1 -2 -0 -3 -7 -42 -80 -87 -40
-168 -173 -139 -116 -112 -110 -116 -158 -140 -140 -95 -41 -22 -0 -14 -71 -157 -235 -408 -434 -17 -0 -0 -46 -3 -2 -2 -2 -1 -31 -78 -102 -74
-214 -215 -203 -156 -137 -150 -154 -152 -134 -132 -108 -30 -40 -27 -6 -63 -138 -175 -235 -250 -281 -242 -71 -3 -42 -80 -76 -15 -1 -14 -81 -121 -54
-249 -278 -339 -314 -257 -166 -124 -139 -142 -119 -82 -64 -31 -26 -52 -67 -84 -85 -121 -119 -123 -78 -58 -116 -133 -144 -145 -124 -99 -39 -60 -125 -37
-0 -0 -0 -87 -320 -296 -334 -317 -233 -114 -95 -73 -56 -57 -45 -62 -94 -106 -118 -137 -122 -141 -166 -188 -214 -209 -188 -157 -118 -101 -56 -77 -29
-0 -0 -0 -0 -0 -0 -0 -0 -99 -284 -225 -195 -142 -102 -102 -79 -78 -85 -96 -120 -103 -101 -131 -180 -189 -211 -209 -210 -186 -241 -168 -123 -80
-0 -0 -0 -0 -0 -0 -0 -0 -0 -0 -368 -325 -286 -218 -125 -85 -74 -72 -79 -77 -83 -90 -110 -120 -135 -136 -175 -228 -204 -257 -359 -317 -192
-0 -0 -0 -0 -0 -0 -0 -0 -0 -0 -0 -321 -329 -281 -231 -173 -76 -59 -55 -68 -80 -90 -96 -116 -129 -135 -153 -0 -186 -259 -292 -273 -223
-0 -0 -0 -0 -0 -0 -0 -0 -0 -0 -0 -315 -279 -0 -211 -251 -186 -117 -57 -55 -55 -63 -79 -86 -107 -136 -142 -63 -0 -189 -253 -256 -93
-0 -0 -0 -0 -0 -0 -0 -0 -0 -0 -0 -110 -178 -0 -0 -0 -0 -0 -36 -50 -10 -81 -119 -165 -194 -0 -33 -158 -254 -45 -392 -367 -346
-0 -0 -0 -0 -0 -0 -0 -0 -0 -0 -112 -70 -94 -124 -0 -0 -0 -0 -0 -0 -63 -3 -22 -118 -0 -0 -0 -0 -10 -0 -0 -18 -430
Wind_Speed
17 5 8 10 15 15 17 15 10 12 14 13 14 14 13 13 13 15 17 13 5 8 11 21 26 18 9 5 7 3 4 6 6
13 11 6 4 5 11 12 12 12 15 16 13 14 14 10 7 9 9 10 13 8 1 11 18 18 26 22 11 9 5 6 7 7
14 11 8 7 7 8 8 8 7 9 10 9 10 12 10 7 4 4 4 6 8 6 3 9 18 18 22 16 9 6 6 8 7
14 13 11 9 8 9 9 9 9 7 5 4 5 6 7 3 3 8 5 5 10 10 9 3 10 11 12 15 10 8 6 7 10
15 14 12 10 9 10 10 11 12 10 9 6 1 2 4 4 3 14 18 12 7 13 9 7 4 10 11 9 7 6 5 5 6
16 15 13 11 10 10 11 12 12 12 11 10 9 7 2 4 4 22 28 29 27 16 10 11 8 4 4 9 9 8 7 5 4
18 16 14 13 11 11 13 13 14 14 13 13 13 10 7 9 10 19 29 31 28 25 9 13 14 12 16 16 16 15 15 14 13
20 18 17 15 14 14 14 13 15 14 15 16 15 13 8 4 5 1 27 29 31 31 27 27 19 22 25 22 18 15 14 16 18
21 21 19 16 14 13 13 13 14 16 16 18 17 16 15 9 1 3 6 13 22 28 30 30 8 21 18 14 11 1 8 10 7
21 21 20 17 15 13 11 11 12 14 16 19 19 20 17 10 6 12 19 14 19 24 30 32 23 4 4 4 2 11 8 3 3
20 20 20 18 17 14 12 8 9 13 14 16 17 16 14 9 9 8 12 14 19 28 34 37 10 19 16 32 27 17 14 7 6
19 19 19 19 19 16 16 14 13 13 14 14 15 14 13 15 15 16 19 18 17 7 6 19 22 23 25 29 32 25 16 12 13
19 19 19 20 20 19 18 19 17 15 14 14 16 16 15 16 18 17 16 17 14 9 9 18 23 20 21 27 29 25 21 16 18
20 21 21 22 21 20 22 23 23 21 20 20 20 22 19 16 17 19 19 19 19 21 23 26 27 29 28 30 29 30 27 21 24
24 26 26 26 26 26 25 25 26 26 26 26 26 26 25 21 19 18 20 22 23 23 24 26 30 31 31 28 28 30 30 29 26
27 28 30 30 31 32 30 30 30 32 32 32 31 31 30 29 27 27 26 25 27 28 28 30 31 31 33 33 31 32 31 32 31
31 32 34 35 36 38 38 36 36 35 35 35 35 37 37 34 32 31 30 30 29 30 32 32 33 34 34 35 35 34 32 31 30
34 35 35 36 37 38 40 40 39 38 38 38 40 40 39 38 37 35 34 34 34 32 32 31 32 35 35 36 37 36 32 32 31
33 34 36 38 38 39 39 40 41 40 38 38 39 40 39 39 40 39 37 37 37 35 35 34 33 33 35 35 34 33 30 31 31
34 36 37 38 39 40 41 41 42 41 40 39 39 40 40 39 39 40 42 41 40 40 33 32 34 35 34 34 36 34 33 33 33
Wind_Direction
310 28 126 136 151 153 160 162 131 171 171 158 164 169 174 176 180 181 186 185 179 317 316 291 275 299 316 319 321 336 337 336 340
355 6 32 54 102 138 152 150 146 167 176 161 167 170 166 176 175 181 179 182 176 256 306 301 300 278 288 312 316 320 324 326 325
346 347 347 8 45 83 97 116 110 146 159 160 166 172 169 170 208 207 211 191 188 189 286 311 300 297 290 301 307 306 314 321 321
337 348 346 354 9 29 42 39 46 74 93 149 172 178 181 213 228 283 275 267 185 190 193 235 308 307 303 301 307 309 310 315 321
337 342 347 346 7 39 26 15 13 31 37 45 84 204 201 236 253 286 286 292 191 187 192 195 281 302 298 295 296 301 289 290 309
324 331 338 349 8 12 7 8 10 22 26 33 42 62 82 153 312 257 259 266 214 191 189 190 192 224 235 207 206 207 214 229 262
319 318 322 327 338 344 345 352 360 3 8 15 10 20 85 146 154 183 240 229 216 211 185 193 197 191 196 199 201 202 202 201 201
308 314 315 317 315 320 333 346 357 356 2 353 357 358 9 89 123 73 267 258 245 239 216 220 202 206 213 206 199 195 194 198 203
309 309 312 312 315 320 328 337 349 347 347 346 350 337 329 337 41 348 335 309 282 262 254 231 174 200 197 192 188 250 188 188 183
311 311 311 313 316 319 325 334 344 348 347 345 340 334 337 338 333 320 293 310 296 284 264 241 212 317 308 199 226 315 314 288 270
319 316 315 317 318 324 327 325 337 347 352 353 348 347 352 2 344 339 337 324 316 296 289 241 271 282 309 272 284 306 307 305 308
330 324 322 319 320 325 327 323 322 322 330 340 342 340 341 327 324 321 318 325 326 347 230 226 306 311 302 291 281 301 306 302 299
331 331 327 320 318 319 322 323 323 323 324 324 323 324 324 320 311 317 319 319 322 331 330 321 310 320 316 298 296 307 307 302 298
328 328 325 322 319 318 317 317 317 315 313 313 314 314 314 312 308 305 304 308 310 307 308 303 304 301 306 300 300 300 303 302 295
318 316 316 314 312 313 314 314 311 308 307 308 306 303 301 300 300 298 298 296 298 302 304 304 301 301 303 308 310 307 303 298 294
316 314 312 311 309 308 309 309 308 304 302 302 300 299 296 292 291 290 290 291 292 293 294 296 298 301 301 304 308 307 305 299 295
311 311 309 309 306 303 302 305 304 302 301 300 297 293 291 291 289 285 285 285 287 288 289 291 293 295 298 301 301 302 305 301 296
310 310 310 309 308 306 303 303 303 302 300 298 295 293 291 289 288 286 283 280 281 282 285 288 291 292 293 296 298 298 298 297 292
313 312 312 310 309 308 306 305 303 302 302 299 296 294 293 290 287 285 284 283 281 276 276 283 284 288 291 294 296 299 298 295 289
313 312 312 311 309 309 308 305 303 302 301 299 296 293 293 293 291 288 285 283 280 279 278 274 276 280 284 287 290 295 294 291 286